EcAMSat (43019 NORAD) Tracking and Keplerian Element Data

This shows tracking and keplerian element data for the satellite.

Feedback or suggestion? Click here.




ElementValue
Catalog43019
NameEcAMSat
Epoch Orbit14220
Epoch Day319.93270845
Epoch Year2018
RAAN335.2999
Inclination51.6411
Eccentricity0.0005324
Argument of Perigee25.9082
Mean Anonmoly334.2176
Mean Motion15.58673405
Decay Rate4.957E-05
L11 43019U 98067NG 18319.93270845 .00004957 00000-0 69690-4 0 9996
L22 43019 51.6411 335.2999 0005324 25.9082 334.2176 15.58673405142206

Live tracking and technical data element details for EcAMSat (NORAD 43019). EcAMSat can be tracked NOW for your location showing map with azimuth and elevation plus other details from your city location.

Track the satellite on the map from your city or location and see movement details for azimuth, elevation, latitude, longitude, range, height, and movement on the map or in text.







IsCatalogInMostPopularTable: catalog: 43019, numindb: 178
Update: records affected: 1



GetName: 43019 EcAMSat

Hit Count: updated at: Fri, 16 Nov 2018 12:13:06 GMT